Temp
7 7 7 7 7 7 7 7 7 7 7 6 5 5 4 4 3 3 3 2 2 2 1 1 1 0 0 -0 -0 -0 -1 -1 -0 -1 -2 -2 -1 -2 -3 -3 -4 -4 -4
7 7 7 6 6 6 7 7 7 7 7 6 5 5 4 3 3 3 3 3 2 2 1 1 1 0 0 -0 -1 -0 -1 -1 -1 -1 -2 -2 -2 -2 -3 -4 -4 -4 -4
7 7 6 6 6 6 6 6 6 6 6 6 6 5 4 4 3 3 3 2 2 2 2 1 1 1 0 -0 -1 -1 -1 -1 -2 -1 -2 -3 -2 -3 -3 -4 -4 -4 -4
7 7 6 6 6 6 6 5 5 6 6 5 5 5 5 4 4 3 3 3 2 2 1 1 1 1 1 -0 0 -0 -1 -2 -2 -2 -2 -2 -3 -3 -3 -4 -4 -5 -5
7 6 6 6 5 5 5 5 5 5 5 5 5 5 5 4 4 3 3 3 3 2 2 2 2 1 1 0 0 -0 -1 -1 -2 -2 -2 -3 -3 -3 -3 -4 -4 -5 -5
6 6 5 5 5 5 5 5 5 4 4 4 4 4 4 4 4 3 3 3 3 3 3 2 1 1 1 -0 -0 -0 -0 -1 -1 -2 -2 -3 -3 -3 -3 -4 -4 -4 -4
6 5 5 5 4 4 4 4 4 4 4 3 3 3 3 3 3 3 2 2 2 3 3 2 2 1 0 -0 -1 -0 -0 -0 -1 -2 -2 -3 -3 -4 -3 -4 -4 -4 -4
6 5 5 4 4 4 4 4 4 3 3 2 2 2 2 2 1 1 1 1 1 2 2 2 2 1 1 -0 -1 -1 -1 -1 -1 -1 -1 -2 -3 -3 -3 -4 -4 -4 -5
5 5 4 4 4 4 4 4 3 3 3 2 2 2 1 2 1 1 1 1 2 1 1 1 1 1 1 -0 0 -0 -1 -1 -2 -2 -2 -2 -3 -3 -4 -4 -4 -4 -5
4 4 4 4 4 3 3 3 3 2 2 2 2 2 1 2 1 1 1 1 2 1 0 0 0 1 0 -1 -0 0 -0 -2 -3 -2 -2 -2 -3 -3 -4 -4 -5 -4 -4
4 4 4 4 3 3 2 2 2 2 2 2 1 1 1 1 1 1 1 1 1 1 1 -0 -0 -1 -0 -0 -1 1 1 -1 -2 -2 -2 -2 -3 -3 -4 -4 -4 -5 -5
4 4 4 3 3 3 2 2 2 1 1 1 1 0 0 0 -0 -0 -0 -1 -1 0 0 -0 -1 -1 -1 -1 -1 -0 0 -0 -1 -1 -2 -2 -3 -3 -3 -4 -4 -5 -5
3 3 3 3 2 2 2 2 1 1 1 0 -0 -0 -1 -1 -1 -1 -2 -1 -1 -0 -0 -1 -1 -1 -1 -1 -1 -1 -0 -0 0 -1 -2 -3 -4 -3 -3 -4 -5 -5 -5
3 2 2 2 1 1 1 1 1 1 0 -1 -1 -1 -1 -2 -2 -2 -2 -2 -2 -2 -1 -1 -1 -1 -1 -1 -1 -1 -0 0 -0 -1 -2 -3 -3 -3 -4 -4 -5 -5 -5
2 2 2 1 1 0 -0 -0 -0 -1 -3 -3 -2 -3 -2 -2 -3 -3 -3 -2 -2 -2 -2 -2 -1 -1 -2 -2 -1 -2 -2 -1 -1 -1 -2 -3 -3 -4 -4 -4 -4 -5 -5
3 3 2 1 1 -0 -1 -1 -1 -2 -3 -4 -4 -3 -3 -3 -3 -3 -3 -2 -2 -2 -2 -2 -1 -1 -2 -2 -2 -2 -3 -2 -1 -2 -2 -3 -3 -3 -4 -4 -4 -4 -5
2 1 1 -0 -1 -1 -1 -1 -1 -2 -4 -4 -4 -3 -3 -4 -3 -3 -3 -3 -2 -2 -1 -2 -2 -2 -3 -3 -3 -3 -3 -3 -3 -3 -2 -3 -3 -3 -4 -4 -5 -4 -5
1 1 0 -1 -1 -2 -2 -2 -2 -3 -4 -4 -4 -4 -4 -4 -3 -3 -3 -2 -3 -3 -2 -2 -2 -3 -3 -3 -3 -3 -4 -4 -3 -3 -3 -3 -3 -4 -4 -4 -5 -5 -5
1 -0 -0 -1 -2 -2 -3 -3 -4 -4 -4 -4 -4 -4 -3 -3 -2 -3 -3 -3 -2 -2 -3 -3 -3 -2 -3 -3 -4 -4 -4 -4 -4 -3 -3 -3 -3 -3 -3 -4 -5 -5 -5
-0 -1 -1 -2 -3 -3 -4 -4 -4 -4 -4 -4 -3 -3 -3 -3 -3 -3 -4 -4 -3 -3 -3 -3 -3 -3 -3 -3 -3 -4 -4 -4 -4 -4 -3 -3 -4 -4 -4 -4 -5 -5 -5
-0 -1 -3 -3 -3 -3 -4 -4 -4 -4 -3 -3 -3 -3 -3 -3 -3 -3 -3 -3 -4 -4 -4 -4 -4 -4 -4 -4 -4 -4 -4 -4 -4 -4 -4 -4 -4 -4 -4 -4 -5 -5 -5
-1 -2 -3 -4 -4 -4 -4 -4 -4 -3 -3 -3 -3 -3 -3 -3 -3 -3 -3 -3 -3 -4 -4 -4 -3 -4 -4 -4 -5 -5 -4 -4 -4 -4 -4 -4 -4 -4 -5 -4 -5 -6 -6
-2 -4 -4 -4 -4 -4 -4 -3 -3 -3 -3 -3 -3 -4 -4 -4 -4 -4 -3 -3 -3 -4 -5 -4 -4 -4 -4 -5 -5 -5 -5 -4 -5 -5 -5 -5 -5 -4 -5 -5 -5 -6 -6
-3 -4 -5 -5 -4 -4 -3 -3 -4 -3 -3 -3 -4 -3 -3 -3 -4 -4 -4 -4 -4 -4 -4 -4 -5 -4 -5 -5 -6 -5 -5 -5 -5 -5 -5 -5 -5 -5 -4 -5 -5 -6 -6
-5 -5 -5 -4 -3 -3 -4 -4 -3 -3 -4 -3 -3 -3 -4 -4 -4 -4 -5 -5 -5 -5 -6 -7 -7 -7 -7 -6 -6 -6 -6 -6 -6 -5 -5 -5 -5 -5 -5 -5 -5 -6 -6
-5 -5 -4 -3 -4 -4 -4 -4 -3 -4 -3 -3 -4 -4 -4 -4 -4 -4 -5 -5 -7 -8 -9 -10 -9 -9 -8 -8 -7 -7 -6 -6 -6 -6 -6 -5 -6 -5 -5 -5 -6 -6 -6
Height
3147 3145 3143 3141 3139 3137 3134 3132 3129 3126 3123 3121 3120 3119 3117 3116 3115 3115 3114 3112 3109 3107 3106 3104 3103 3101 3099 3098 3095 3091 3087 3082 3079 3078 3074 3069 3065 3060 3056 3054 3051 3048 3043
3141 3139 3137 3135 3133 3131 3129 3126 3123 3119 3116 3114 3113 3112 3111 3108 3105 3104 3105 3104 3102 3101 3099 3096 3096 3093 3092 3090 3087 3085 3081 3077 3073 3070 3068 3063 3058 3053 3051 3049 3047 3043 3040
3136 3134 3131 3129 3127 3125 3123 3120 3117 3114 3111 3108 3106 3105 3104 3102 3098 3096 3094 3094 3093 3092 3090 3088 3087 3085 3084 3083 3080 3077 3074 3071 3067 3063 3061 3057 3053 3048 3045 3043 3042 3039 3035
3131 3129 3126 3124 3122 3119 3116 3114 3111 3109 3107 3104 3102 3100 3097 3094 3092 3090 3087 3085 3084 3083 3081 3079 3078 3077 3075 3074 3071 3070 3067 3064 3062 3057 3054 3051 3046 3042 3039 3038 3038 3035 3031
3125 3123 3120 3118 3116 3114 3111 3108 3105 3102 3101 3098 3097 3094 3092 3089 3086 3083 3080 3078 3075 3073 3071 3070 3069 3068 3066 3065 3063 3062 3059 3057 3055 3052 3048 3044 3040 3037 3033 3032 3032 3031 3028
3120 3117 3115 3113 3111 3108 3105 3102 3099 3097 3094 3092 3090 3087 3086 3083 3081 3078 3074 3071 3069 3066 3063 3061 3058 3057 3057 3056 3054 3052 3051 3049 3048 3044 3043 3038 3034 3031 3028 3027 3026 3025 3023
3114 3111 3109 3107 3105 3102 3099 3097 3093 3090 3087 3084 3082 3079 3078 3076 3072 3069 3064 3061 3059 3057 3055 3053 3051 3048 3046 3045 3045 3042 3040 3041 3040 3038 3035 3034 3028 3024 3022 3021 3020 3020 3017
3108 3106 3103 3100 3098 3095 3092 3089 3086 3083 3079 3077 3074 3072 3068 3065 3061 3058 3054 3050 3048 3047 3045 3043 3041 3040 3038 3036 3034 3032 3032 3031 3031 3028 3027 3027 3024 3020 3016 3015 3015 3015 3013
3103 3099 3096 3093 3090 3088 3085 3081 3079 3075 3072 3069 3066 3063 3059 3057 3051 3046 3041 3037 3035 3034 3034 3033 3030 3030 3029 3027 3023 3022 3022 3022 3022 3021 3019 3018 3016 3014 3011 3009 3009 3009 3009
3095 3092 3088 3085 3082 3079 3076 3073 3069 3066 3063 3060 3056 3054 3050 3047 3043 3038 3032 3026 3023 3022 3021 3020 3021 3019 3019 3016 3014 3014 3012 3016 3013 3012 3012 3012 3010 3008 3006 3004 3003 3003 3003
3084 3081 3079 3076 3072 3069 3066 3063 3059 3056 3052 3050 3047 3044 3040 3036 3033 3029 3025 3018 3016 3011 3008 3007 3007 3006 3007 3006 3004 3005 3006 3006 3004 3002 3004 3004 3003 3001 3000 2998 2997 2997 2997
3075 3071 3068 3066 3062 3059 3055 3053 3049 3045 3042 3039 3034 3033 3031 3027 3022 3018 3013 3009 3004 2998 2997 2994 2994 2995 2994 2994 2993 2995 2995 2995 2996 2995 2995 2996 2996 2995 2993 2992 2991 2990 2991
3063 3060 3056 3054 3051 3047 3042 3039 3036 3034 3029 3027 3024 3021 3018 3015 3012 3007 3001 2995 2992 2985 2984 2983 2981 2982 2983 2984 2983 2985 2984 2984 2986 2987 2987 2988 2987 2987 2986 2986 2985 2985 2985
3047 3044 3042 3039 3036 3033 3029 3027 3024 3022 3018 3015 3012 3006 3002 3000 2998 2994 2989 2985 2981 2977 2974 2971 2971 2970 2969 2973 2972 2973 2975 2976 2977 2979 2979 2979 2978 2978 2979 2978 2979 2978 2979
3031 3028 3026 3023 3021 3017 3014 3012 3009 3008 3005 3002 3000 2994 2987 2986 2984 2980 2976 2973 2971 2968 2961 2961 2961 2959 2958 2959 2963 2965 2965 2966 2967 2969 2970 2970 2970 2971 2971 2971 2972 2972 2973
3017 3014 3012 3009 3005 3002 3000 2999 2996 2994 2992 2989 2984 2981 2978 2972 2970 2966 2964 2961 2959 2957 2953 2951 2951 2949 2949 2949 2950 2953 2955 2955 2958 2958 2961 2961 2961 2962 2964 2964 2964 2966 2968
3005 3002 2998 2995 2993 2989 2986 2983 2983 2982 2980 2977 2972 2969 2965 2960 2957 2955 2952 2950 2947 2944 2943 2941 2940 2939 2939 2939 2939 2941 2944 2945 2946 2947 2950 2952 2952 2953 2955 2956 2957 2958 2961
2995 2991 2987 2985 2983 2981 2978 2977 2975 2972 2970 2969 2962 2956 2953 2950 2947 2944 2942 2939 2937 2935 2933 2930 2929 2928 2928 2928 2929 2931 2932 2933 2934 2938 2940 2942 2944 2945 2946 2948 2949 2951 2953
2985 2982 2979 2975 2972 2970 2968 2965 2962 2961 2959 2955 2952 2949 2944 2941 2938 2935 2931 2928 2926 2925 2922 2920 2919 2918 2917 2917 2919 2920 2920 2922 2925 2926 2930 2932 2933 2936 2937 2940 2942 2943 2944
2973 2970 2968 2964 2963 2959 2957 2958 2953 2951 2948 2945 2942 2938 2935 2932 2929 2926 2921 2918 2916 2914 2912 2909 2908 2907 2906 2905 2906 2908 2911 2912 2914 2916 2920 2922 2924 2926 2928 2931 2934 2935 2937
2965 2962 2958 2956 2955 2954 2949 2948 2945 2942 2939 2937 2934 2931 2927 2925 2922 2918 2915 2911 2908 2905 2901 2898 2897 2897 2896 2895 2895 2897 2898 2901 2905 2907 2909 2911 2914 2917 2919 2922 2924 2927 2929
2955 2952 2950 2948 2946 2945 2943 2939 2937 2935 2932 2929 2927 2925 2921 2916 2912 2909 2905 2902 2897 2894 2891 2888 2887 2885 2884 2884 2884 2885 2888 2891 2892 2896 2899 2901 2904 2907 2910 2913 2915 2917 2921
2947 2944 2942 2939 2938 2937 2935 2932 2931 2928 2926 2924 2921 2917 2912 2907 2903 2898 2894 2890 2886 2882 2880 2877 2873 2872 2871 2871 2873 2874 2876 2880 2884 2886 2887 2890 2894 2897 2900 2904 2907 2910 2913
2938 2937 2935 2933 2931 2930 2929 2927 2926 2924 2922 2919 2915 2909 2904 2900 2895 2890 2885 2880 2875 2871 2866 2860 2857 2855 2855 2857 2859 2863 2866 2868 2870 2875 2878 2880 2885 2887 2890 2895 2898 2902 2905
2931 2929 2928 2927 2925 2925 2925 2923 2922 2920 2917 2913 2908 2904 2899 2894 2888 2881 2874 2869 2863 2855 2848 2842 2839 2838 2839 2841 2845 2849 2855 2858 2860 2863 2867 2872 2875 2878 2882 2886 2890 2894 2896
2924 2923 2922 2921 2921 2921 2921 2921 2919 2916 2912 2908 2904 2899 2893 2887 2880 2872 2865 2858 2847 2840 2834 2830 2828 2826 2826 2828 2832 2838 2843 2847 2850 2853 2857 2862 2866 2869 2873 2878 2882 2886 2889
Wind_Speed
22 21 21 21 22 22 22 23 25 26 27 26 24 24 22 22 24 27 26 26 25 25 25 26 25 25 26 26 27 27 27 28 28 24 25 27 27 23 19 20 22 22 23
23 23 22 22 22 22 21 21 21 22 22 21 21 21 22 21 22 23 25 26 26 26 26 27 26 28 27 26 26 28 28 29 28 26 24 25 27 25 18 19 21 22 22
23 22 21 22 22 21 21 21 20 19 19 19 21 22 23 23 23 22 23 26 26 26 27 28 28 29 28 27 28 29 29 30 28 28 24 24 25 23 18 18 19 20 23
21 21 22 21 22 23 23 22 20 19 19 20 20 21 23 25 25 25 24 25 26 28 28 28 29 28 28 28 29 29 29 30 29 28 24 24 24 22 17 16 17 18 19
22 22 21 22 23 24 24 23 23 23 23 22 22 22 22 25 25 25 25 26 28 29 29 28 29 28 29 29 30 30 31 30 29 30 26 24 24 23 18 16 16 16 16
23 22 22 23 25 25 25 25 25 25 25 26 25 25 26 26 27 29 29 29 30 30 30 29 29 28 28 29 29 30 31 31 28 29 29 26 23 22 18 15 15 15 14
24 24 24 26 26 27 27 27 26 25 26 25 25 26 26 27 29 31 34 33 31 32 33 32 31 28 28 27 28 32 31 30 27 28 28 27 25 22 18 15 14 15 14
26 27 28 29 30 31 30 30 29 28 27 27 28 29 31 31 34 35 38 40 38 35 33 34 33 30 30 27 29 32 31 29 28 29 28 24 26 24 17 16 14 14 13
29 31 32 34 34 35 35 34 33 33 31 31 32 32 35 33 35 35 37 40 41 41 37 35 34 32 30 29 31 32 30 29 27 29 28 26 25 25 20 15 15 14 13
32 34 36 37 38 38 38 38 38 37 36 36 36 37 39 36 32 32 35 37 40 41 41 38 36 33 30 31 33 32 32 25 27 30 27 25 24 25 24 15 17 14 15
37 38 39 40 41 41 41 41 41 41 42 41 42 40 40 38 35 35 35 39 41 44 42 39 35 35 34 32 33 31 31 28 28 29 26 24 23 23 22 19 18 15 15
40 42 43 41 42 43 44 43 44 44 45 44 44 43 41 38 37 37 38 40 40 43 42 38 36 36 36 33 31 31 31 31 29 27 25 22 22 22 23 22 20 18 15
46 47 49 47 45 46 46 46 47 47 47 46 45 46 42 40 39 39 42 41 40 40 40 38 37 37 37 36 33 29 33 31 29 26 23 21 22 22 22 21 21 21 18
47 43 43 47 49 47 47 49 48 47 46 46 46 46 46 47 40 40 41 37 37 36 37 40 39 35 36 40 37 30 32 30 26 25 23 23 25 22 20 20 23 24 21
43 43 43 43 45 49 49 48 47 44 42 42 42 46 52 52 41 41 35 32 33 32 35 35 36 36 35 36 38 31 30 29 27 25 24 24 26 23 21 20 22 26 23
47 45 41 38 39 41 42 43 42 39 38 39 45 50 51 44 45 41 35 35 30 31 36 35 35 36 34 32 32 31 29 29 29 27 25 26 26 24 22 21 22 23 25
43 41 40 38 38 39 39 37 36 34 35 37 44 48 46 42 34 36 35 35 32 31 32 30 28 29 31 30 30 30 29 28 30 30 28 28 28 25 24 21 21 22 24
43 41 38 36 35 35 34 34 35 36 39 42 44 44 39 34 36 35 36 34 34 32 33 31 29 28 28 29 27 29 28 29 30 31 30 28 28 27 25 22 21 21 22
45 41 38 35 33 33 34 34 34 39 42 43 35 35 35 34 36 35 34 35 34 36 34 33 32 32 30 28 27 26 28 30 30 32 32 30 29 29 24 23 22 22 23
42 40 36 33 31 31 31 34 36 38 35 32 32 32 30 28 26 26 27 29 31 32 33 33 33 33 33 33 31 26 29 31 33 32 32 31 30 29 26 24 23 23 22
39 36 32 29 30 33 33 34 33 28 29 28 26 24 24 25 26 27 27 28 28 27 28 31 32 34 34 32 32 31 28 30 33 32 33 32 31 30 27 25 24 25 23
33 31 29 29 31 31 29 26 26 25 24 21 22 26 28 28 29 29 30 31 32 30 30 30 30 33 35 34 32 32 31 30 31 32 33 33 32 31 30 27 26 25 24
30 28 28 26 26 24 21 20 22 20 18 22 24 26 27 30 32 33 34 36 35 32 32 37 39 35 34 35 35 33 31 28 30 32 32 33 32 32 30 28 26 25 24
29 26 22 22 20 17 17 21 15 16 19 23 24 26 29 31 32 34 37 35 31 35 45 46 42 38 36 37 36 34 33 29 29 30 33 32 31 33 32 30 28 26 24
20 18 20 17 15 18 16 13 14 18 20 21 24 25 27 30 32 36 32 32 41 47 42 37 34 33 34 36 36 34 32 30 30 31 32 33 31 32 32 30 28 27 25
17 18 15 15 16 13 10 13 16 18 19 21 23 26 30 33 36 38 34 43 42 35 29 26 25 26 27 31 34 33 32 31 30 31 31 31 31 32 32 29 28 27 25
Wind_Direction
304 302 303 304 305 303 302 300 299 297 295 291 283 280 280 284 288 291 289 289 290 290 290 290 293 292 294 297 298 299 303 307 316 324 327 326 329 321 304 303 308 316 322
303 303 303 304 306 307 307 305 302 301 300 296 288 284 284 280 280 284 286 287 289 291 289 288 288 287 289 292 293 296 299 302 309 317 325 325 325 323 307 301 307 313 321
301 305 306 309 311 311 310 308 307 305 302 298 295 293 289 287 282 280 280 283 286 286 286 285 286 285 288 289 290 291 295 298 303 310 319 319 321 322 306 298 306 314 319
302 303 305 307 309 311 312 310 308 304 301 299 298 298 297 294 293 290 284 281 282 284 283 284 283 284 284 283 285 288 290 293 298 303 312 315 318 320 308 296 303 312 318
302 302 302 304 307 310 311 312 310 308 305 300 298 295 295 296 295 291 287 285 283 281 280 283 285 284 281 281 282 286 288 292 297 301 307 311 315 319 308 291 300 309 314
301 299 299 302 306 309 312 314 312 311 309 306 300 296 294 294 296 298 295 291 287 286 285 281 280 279 279 279 279 280 283 290 295 299 303 306 308 314 305 285 292 302 312
300 296 297 300 304 307 311 312 310 310 310 308 306 303 301 299 295 291 290 287 286 286 287 286 283 279 275 273 275 276 281 287 289 291 297 303 303 305 305 280 285 297 309
299 297 297 299 301 304 307 308 308 309 309 305 305 304 302 300 294 290 286 284 284 281 281 283 283 280 276 272 268 270 276 279 286 289 294 296 298 299 301 275 274 287 298
300 298 296 297 300 302 304 305 306 306 306 307 307 304 304 302 297 291 287 285 283 279 276 275 279 280 277 270 265 267 269 274 278 282 287 295 297 297 296 272 262 277 283
299 295 294 296 297 299 300 301 302 302 302 303 303 308 310 308 304 303 296 292 289 285 277 270 273 274 273 268 265 265 265 270 269 273 283 286 288 292 292 270 251 265 279
293 290 290 291 294 295 294 295 296 297 299 301 302 304 309 306 301 302 301 295 295 291 282 274 265 268 270 265 265 267 270 263 263 270 277 281 284 286 287 272 249 251 268
292 290 290 291 292 291 291 291 291 293 295 296 297 300 305 305 302 302 304 299 293 285 285 280 269 263 265 265 263 264 265 266 265 268 271 277 278 280 281 274 249 244 254
292 292 287 286 288 290 288 288 288 290 291 292 294 297 302 304 301 299 300 294 285 278 285 285 277 265 262 262 263 262 264 262 266 266 270 270 272 273 276 280 259 244 243
296 295 290 284 283 285 287 287 286 287 287 288 290 291 295 296 301 303 303 291 287 285 281 278 279 272 264 262 258 256 263 269 269 263 262 263 266 270 272 273 263 245 239
294 292 291 288 284 281 280 281 283 284 282 284 286 287 288 294 293 297 300 291 290 288 285 285 282 277 270 265 261 260 259 263 264 263 258 256 262 265 267 265 266 254 239
299 300 297 290 284 282 281 281 282 279 276 278 280 291 297 300 300 298 288 288 286 281 279 280 283 285 278 275 268 259 253 255 259 259 255 254 257 261 261 259 262 262 246
298 296 292 289 286 284 282 281 279 275 280 286 294 298 302 302 300 296 292 288 286 286 287 287 281 273 274 273 269 258 247 249 253 253 251 250 254 255 258 257 258 261 251
303 303 301 295 291 287 286 287 285 283 280 283 292 301 304 301 295 291 287 285 287 287 284 283 281 274 268 267 263 255 243 244 246 251 250 248 251 253 255 255 254 258 255
302 303 302 297 290 287 286 286 285 285 289 295 300 300 296 293 291 291 289 288 289 285 281 281 281 280 273 266 261 253 246 244 244 244 247 247 245 251 251 253 251 250 253
299 301 299 294 291 290 289 289 290 293 300 303 299 297 296 295 298 299 300 298 292 288 284 278 273 274 274 273 268 259 252 245 242 242 244 245 244 248 249 249 248 249 251
304 300 296 296 294 292 291 294 297 301 302 301 300 303 307 307 305 304 303 299 300 302 296 288 280 271 267 267 268 265 252 244 245 240 240 241 241 242 245 244 243 246 246
302 298 295 294 294 296 297 300 302 302 299 300 305 305 305 307 309 308 306 304 298 292 295 298 295 280 270 263 261 261 260 251 240 238 237 237 237 238 240 240 240 241 245
298 294 293 294 296 297 298 301 295 296 301 304 304 308 315 316 313 310 308 307 301 293 294 296 294 286 270 261 256 254 252 250 248 240 235 235 233 234 237 238 239 238 241
293 293 294 294 296 296 293 292 295 304 305 306 313 320 322 322 318 313 308 303 297 299 302 297 289 279 268 258 251 247 247 242 239 241 241 236 232 232 234 233 235 235 234
286 287 292 291 286 289 290 287 297 307 313 318 324 325 324 322 320 322 316 312 310 306 299 290 282 271 259 251 249 244 240 239 238 234 236 237 231 232 234 233 233 232 232
280 285 281 276 286 278 273 291 306 314 321 325 327 329 332 333 332 329 322 322 318 312 305 296 285 273 263 249 243 242 238 235 232 235 235 234 232 230 232 232 232 231 230